Location: Knowlton
(51.2333°N, 1.2667°E)
Time: 03:46:46
(UTC+00:00)

ATLAS 5 CENTAUR R/B - Pass Details

Date: 18 April 2021
Orbit: 516 x 1141 km, 63.3° (Epoch: 02 May)

Event Time Altitude Azimuth Distance (km) Brightness Sun altitude
Rises 21:02:16 0° 279° (W) 2,800 5.8 -17.4°
Reaches altitude 10° 21:04:47 10° 295° (WNW) 1,979 5.2 -17.7°
Maximum altitude 21:08:20 22° 348° (NNW) 1,446 4.1 -18.0°
Drops below altitude 10° 21:12:19 10° 40° (NE) 2,262 4.5 -18.5°
Sets 21:15:26 0° 54° (NE) 3,318 5.2 -18.8°
